Temp
29 28 28 28 28 30 28 29 30 30 31 31 29 28 26 26 26 25 24 25 25 25 27 27 27 27 27 27 26 27 26 25 25 24 24 24 24 25 25 25 24 24 24 24
28 28 28 29 29 30 29 29 29 31 30 30 28 28 26 26 26 26 26 25 25 26 24 26 27 27 27 27 27 27 26 25 25 25 25 25 25 25 25 25 24 24 24 24
27 30 29 31 30 30 28 28 29 31 30 29 28 28 26 26 26 27 27 27 27 26 25 23 24 26 26 26 28 27 26 26 26 25 25 25 25 25 25 25 25 25 25 25
29 29 31 29 30 28 29 28 30 31 28 28 28 27 26 25 26 26 27 27 27 27 26 24 24 25 25 27 27 27 27 26 26 26 25 25 26 26 26 26 26 25 25 24
29 28 29 30 30 28 29 29 30 30 27 28 29 27 27 24 25 26 27 28 28 28 27 25 25 25 27 26 26 26 27 26 26 26 25 25 26 26 26 26 26 26 25 25
28 30 31 31 31 29 28 27 25 24 25 26 28 27 28 25 27 28 28 28 29 28 27 26 26 26 26 26 26 26 26 26 26 26 26 25 26 26 26 27 27 26 26 26
28 29 31 31 31 28 26 25 23 26 25 26 24 27 28 29 28 28 28 28 29 29 27 26 25 26 26 26 26 25 26 26 26 26 26 26 25 26 26 27 26 26 26 26
26 27 29 30 31 29 26 26 24 27 25 26 23 27 30 30 28 28 29 29 29 29 27 27 26 26 26 26 25 25 25 26 25 26 27 26 25 26 26 26 26 27 27 27
25 27 29 30 30 30 28 28 26 23 22 24 24 26 29 29 27 28 28 28 28 29 27 28 27 27 26 26 25 26 25 26 26 27 27 26 26 26 26 26 26 27 27 27
26 28 29 32 31 29 29 27 28 23 28 28 25 27 28 31 28 28 27 27 28 28 28 28 28 27 27 27 25 24 23 24 25 26 27 27 26 26 26 26 26 26 27 26
24 26 29 30 30 29 27 28 23 23 22 26 26 26 26 29 27 27 27 28 27 27 28 27 28 28 27 27 25 25 25 25 25 24 25 26 26 27 26 26 26 26 26 26
25 22 26 29 29 28 29 27 24 25 27 20 22 25 29 28 28 27 28 27 27 27 28 25 25 25 25 25 25 26 26 30 26 24 25 25 26 27 26 26 26 26 26 26
25 25 25 27 27 28 30 26 23 20 20 22 25 27 28 26 27 26 28 26 25 26 24 24 25 25 25 25 25 28 28 29 28 26 24 25 25 26 26 26 26 26 25 25
25 22 26 26 28 28 31 29 25 26 25 24 23 28 29 30 29 26 26 26 25 25 24 24 25 25 24 24 27 27 26 28 30 26 25 24 25 26 26 27 26 25 25 25
26 27 27 27 28 29 31 31 26 28 27 29 29 25 28 29 28 27 26 26 25 25 24 24 23 23 22 24 28 30 26 27 27 27 26 24 26 26 26 26 25 25 25 25
23 26 27 30 29 30 31 30 27 28 27 26 28 25 27 29 27 26 27 25 26 25 25 24 23 22 23 25 26 29 22 26 24 24 25 25 25 26 26 26 25 25 25 25
24 23 24 29 26 27 29 30 31 31 28 28 27 28 28 30 27 27 26 26 27 26 26 24 23 23 24 25 29 30 30 31 26 26 25 24 25 25 25 25 25 25 25 25
24 22 21 25 26 28 28 29 30 30 29 27 27 28 28 28 27 25 25 28 27 26 25 25 24 24 24 23 25 28 33 32 27 24 25 25 25 25 24 24 25 25 25 25
23 22 23 25 24 26 32 30 29 30 30 28 28 26 27 24 26 27 23 24 25 25 22 24 25 25 24 23 23 28 31 25 24 24 24 25 26 25 25 25 24 24 24 24
20 20 25 21 27 28 28 29 27 27 28 28 26 25 24 25 27 26 22 23 22 22 24 24 25 24 25 24 24 24 25 24 23 24 25 26 25 25 24 25 24 24 25 25
22 21 24 21 25 25 26 26 25 30 27 24 25 24 24 24 23 20 21 21 21 22 23 23 24 24 24 24 25 25 24 23 23 26 26 25 25 25 25 24 25 25 25 24
25 24 23 21 26 29 26 26 30 25 23 24 23 24 25 24 22 21 21 21 22 22 22 22 22 22 23 23 23 24 23 24 26 25 25 25 24 25 25 25 25 25 24 23
24 23 23 23 24 23 23 25 25 23 22 22 23 25 25 24 22 21 21 21 22 22 22 23 23 23 24 23 24 23 23 25 25 25 25 24 24 25 25 25 24 24 23 23
22 19 22 24 24 24 24 23 23 23 22 22 22 23 23 23 22 22 21 20 21 20 21 22 23 26 26 28 23 23 23 24 24 24 23 24 24 23 23 24 24 24 24 23
21 20 21 21 22 22 22 22 22 23 23 23 22 23 21 21 21 21 20 21 20 20 21 24 22 22 21 23 22 22 24 25 25 24 23 22 23 23 22 22 21 22 22 22
18 21 22 22 20 21 21 21 21 21 22 22 21 23 22 22 21 20 19 20 20 19 20 21 21 20 20 20 22 24 25 26 24 23 23 22 22 21 21 20 18 18 19 19
Height
761 780 790 781 775 775 788 795 795 784 773 781 788 790 792 789 793 799 800 801 801 800 795 801 805 809 812 814 817 821 824 827 830 832 833 836 838 840 841 842 843 844 846 846
776 786 770 766 772 777 785 793 795 780 774 780 789 787 786 785 786 788 794 796 795 795 796 796 799 803 806 809 813 818 822 825 828 830 831 833 837 838 840 840 841 843 845 846
785 770 762 766 776 784 789 795 793 789 780 781 788 794 791 784 782 784 784 784 788 789 791 793 794 795 798 802 806 810 816 822 825 827 830 833 835 836 837 838 840 842 843 844
775 761 765 774 779 781 799 775 776 782 798 818 789 825 795 786 783 781 777 778 779 780 781 785 790 793 795 796 801 806 812 818 822 825 828 829 831 833 834 836 839 841 843 844
777 772 773 777 775 773 785 771 777 784 806 806 800 818 793 788 792 778 770 767 769 768 773 779 783 784 786 793 797 802 809 815 820 823 826 829 830 832 834 835 837 839 841 842
768 754 758 760 760 764 769 785 796 806 814 835 805 814 796 794 772 760 758 756 757 762 767 772 776 781 788 791 795 801 806 811 817 820 824 827 830 831 833 834 835 837 839 842
772 768 754 751 768 773 780 803 847 842 846 839 814 812 787 756 750 746 746 746 746 751 761 768 775 779 783 786 790 797 803 808 814 818 822 825 828 831 833 834 835 836 838 840
798 801 766 751 759 776 785 795 832 848 855 830 821 820 780 744 738 734 729 731 738 745 754 762 766 771 776 782 787 793 799 806 812 815 819 824 829 831 832 834 835 836 837 839
798 792 753 747 746 754 782 797 788 828 837 837 824 795 756 743 744 735 733 734 739 743 750 754 761 766 771 778 782 790 798 803 808 812 815 818 823 827 831 832 834 836 837 838
768 786 756 746 743 753 762 770 802 822 831 834 826 810 795 755 750 741 740 736 735 738 744 750 755 761 763 773 787 797 801 806 808 810 812 816 820 824 827 831 832 834 836 836
764 773 771 755 762 771 779 783 800 808 823 832 835 814 759 746 744 742 735 731 732 736 738 743 747 755 765 776 784 790 794 801 807 812 816 816 818 821 824 827 830 832 833 833
752 779 788 768 750 748 754 770 786 812 814 831 827 805 736 735 734 731 728 728 727 728 731 736 745 753 761 769 775 778 782 785 795 805 810 815 818 818 821 822 826 830 831 831
745 774 799 782 768 755 758 768 780 793 804 821 818 795 734 736 730 725 722 724 727 729 735 740 745 750 755 761 770 773 772 774 781 799 808 810 813 815 817 819 823 825 827 828
732 771 774 793 772 758 755 757 770 774 798 804 802 772 745 730 728 724 721 718 724 727 735 739 742 746 752 758 767 768 770 775 779 794 801 805 808 811 814 816 819 822 823 825
737 759 760 756 753 750 747 750 767 766 767 773 761 774 744 724 723 716 713 717 723 731 735 737 740 743 749 755 760 766 767 770 781 787 794 801 802 806 811 813 816 819 820 822
744 763 753 753 747 746 749 748 755 754 757 763 756 761 722 711 712 714 712 718 719 728 729 732 735 740 748 752 757 760 773 766 777 787 790 794 799 801 806 810 813 816 818 820
749 763 771 765 761 760 767 746 738 735 741 742 761 730 713 710 714 708 709 710 710 720 723 728 729 737 746 750 754 754 755 759 770 778 788 791 798 799 805 808 811 813 817 819
752 763 774 777 769 788 747 726 723 731 726 728 727 719 711 704 701 699 699 699 702 708 717 722 730 743 750 755 754 753 754 757 771 780 787 789 795 798 804 807 809 812 814 818
739 757 775 780 790 768 731 729 730 733 731 719 720 714 708 708 703 702 698 697 699 703 720 722 723 737 747 750 751 754 757 762 770 780 787 788 792 797 801 805 808 810 813 817
747 752 758 787 776 779 747 724 720 725 749 714 716 713 714 713 725 707 696 694 697 700 711 718 724 734 742 749 752 754 758 764 771 779 784 789 792 797 802 803 805 809 812 816
761 764 768 781 774 760 732 723 724 746 747 714 710 709 710 716 717 710 701 696 697 700 707 715 721 730 738 741 748 755 759 765 771 778 785 789 789 794 800 804 805 808 811 814
753 763 769 776 768 761 720 723 732 727 716 710 710 705 704 706 704 706 706 699 699 702 708 710 715 724 734 746 748 754 759 761 769 778 784 787 790 793 796 800 805 809 812 815
756 749 757 757 754 734 725 723 717 717 719 715 710 701 698 701 704 705 706 703 704 708 712 714 715 713 716 738 756 756 754 761 769 777 779 787 791 792 794 798 802 805 809 811
741 745 749 745 737 730 725 722 720 717 717 713 707 702 699 701 703 706 707 711 713 716 717 717 722 716 702 716 756 762 755 760 767 776 787 790 790 792 795 798 802 804 806 808
742 742 745 745 739 732 727 722 719 714 713 710 707 706 699 700 705 707 712 713 716 723 723 721 727 729 726 727 757 763 754 758 763 776 783 793 791 792 795 798 801 803 806 809
738 737 744 748 740 738 732 722 717 715 712 711 712 709 704 698 702 707 713 714 718 722 727 727 730 732 735 738 746 750 753 753 758 772 775 787 791 793 797 799 802 807 810 813
Wind_Speed
1 4 6 10 7 2 6 3 3 3 4 3 5 5 12 14 10 8 8 9 11 12 21 22 28 30 31 30 30 29 26 25 23 24 22 19 16 10 9 9 7 8 8 8
5 7 6 3 4 4 4 3 4 3 4 4 5 7 11 15 17 16 13 11 14 13 8 14 23 28 32 34 31 30 29 27 26 26 24 21 16 11 9 9 10 5 7 5
6 4 8 5 3 2 1 4 4 3 2 4 1 5 6 8 9 10 10 11 11 14 11 8 19 28 31 33 37 35 34 31 28 28 24 19 12 10 6 8 9 8 8 7
4 2 5 4 3 6 3 7 5 4 4 2 2 6 4 7 16 16 16 15 15 14 8 7 14 19 27 36 39 36 36 34 29 28 26 24 17 12 9 9 7 8 6 7
7 7 5 4 6 7 8 5 4 4 4 3 2 1 6 4 8 18 18 20 17 18 12 12 18 27 36 30 36 36 34 34 32 30 28 25 18 13 6 5 5 7 9 6
7 2 4 8 3 7 6 7 8 5 3 3 3 5 7 5 9 13 17 20 20 17 13 13 24 25 21 26 27 31 32 35 35 32 29 25 21 17 12 7 7 8 8 8
4 3 3 3 5 3 6 7 3 3 2 6 5 2 10 5 5 9 20 20 21 18 13 10 11 17 22 28 30 31 32 34 36 34 30 27 23 20 15 11 11 10 7 11
6 4 7 4 8 8 6 8 6 7 4 4 5 6 8 4 8 7 13 16 17 15 12 13 16 22 26 28 29 30 33 34 35 36 33 29 24 22 18 13 8 7 7 10
5 6 4 5 4 8 5 4 5 7 3 2 4 8 12 3 4 1 6 9 13 13 13 15 15 23 25 26 31 35 33 33 32 34 35 32 28 24 20 15 12 11 9 9
7 0 4 0 3 4 5 6 3 3 3 5 5 5 6 6 4 5 6 10 12 12 12 12 13 21 27 24 16 18 11 17 26 30 34 34 31 26 22 17 14 12 9 9
7 4 5 2 4 9 2 1 6 5 4 6 4 7 9 9 8 12 11 11 11 11 13 13 14 19 18 21 24 22 14 9 9 18 28 32 31 28 24 20 16 13 11 10
6 6 4 10 1 2 3 7 7 5 5 2 3 7 5 8 5 11 14 9 8 9 12 9 12 22 27 32 34 29 20 20 23 16 26 31 31 26 25 24 21 16 14 11
9 1 2 8 6 2 4 4 4 6 4 6 5 7 4 5 6 9 13 9 9 8 8 10 14 17 26 32 39 35 30 35 36 26 25 28 27 25 25 20 18 18 17 16
8 4 7 7 8 4 3 3 4 4 4 5 7 7 9 10 7 8 9 8 9 8 8 11 13 13 24 28 35 32 30 33 29 30 22 25 27 24 24 17 17 16 14 15
3 4 5 5 4 3 3 5 8 8 6 6 10 10 10 12 9 11 9 4 8 10 12 14 14 14 20 25 34 30 15 18 22 28 23 28 23 20 21 16 15 13 11 12
4 2 2 2 3 3 2 6 8 4 2 8 3 9 11 3 2 7 9 8 10 14 15 15 16 14 21 28 32 24 26 23 14 19 18 19 19 19 18 15 13 10 8 8
3 4 2 2 5 7 4 6 6 4 5 6 6 11 4 5 8 8 10 10 13 15 16 17 20 18 28 28 35 23 10 9 6 11 16 16 18 17 16 14 14 12 8 7
4 4 2 1 4 0 8 4 4 5 8 8 8 7 8 6 2 2 5 12 12 11 17 17 15 25 27 25 32 23 16 17 14 12 20 18 19 16 15 13 12 11 11 8
2 5 3 3 3 5 4 3 2 3 6 2 6 9 4 1 3 6 6 3 4 3 11 17 27 31 34 34 36 34 31 16 16 22 26 23 18 19 18 16 15 12 12 10
6 5 4 3 4 4 7 3 1 2 6 1 3 7 2 1 3 7 5 6 6 7 20 25 27 30 36 37 39 32 30 23 20 29 28 25 23 22 21 19 17 14 13 10
3 3 5 3 3 7 6 4 1 4 7 6 4 5 7 5 4 5 1 4 5 10 19 26 26 23 28 40 40 33 31 28 30 32 29 27 26 24 21 19 17 14 13 10
4 4 3 3 2 4 0 2 4 5 5 4 6 6 6 2 2 3 2 8 9 13 19 26 27 25 23 23 32 31 30 30 33 33 31 27 26 26 23 21 16 13 10 10
1 4 4 7 5 3 4 3 2 2 4 6 5 5 6 8 7 7 5 4 6 9 14 16 18 24 31 20 11 23 27 35 37 34 31 27 26 23 22 20 17 13 11 11
1 3 2 2 2 4 4 5 4 4 4 10 10 5 3 4 7 5 3 3 5 10 9 10 5 12 20 23 9 22 36 35 32 27 21 23 23 20 16 15 12 11 12 15
3 4 3 3 4 3 4 4 5 10 5 6 7 5 6 7 5 4 3 4 5 11 13 4 7 11 16 37 29 27 33 36 34 26 20 14 19 18 16 14 11 11 11 13
4 5 4 3 5 3 7 7 10 11 8 6 5 6 3 6 8 6 6 3 6 12 18 18 11 17 22 29 36 34 36 39 38 29 24 18 18 18 18 21 22 17 15 16
Wind_Direction
14 108 202 203 202 115 122 130 149 240 203 141 203 188 179 184 184 196 204 216 216 209 221 212 212 216 221 224 220 220 217 218 213 205 204 214 222 232 243 230 232 238 257 227
27 225 199 181 102 45 86 135 223 279 167 148 213 226 183 182 200 193 200 213 217 227 205 209 208 207 213 220 220 218 215 213 211 210 213 216 218 229 236 231 222 234 220 216
160 251 153 142 118 141 350 194 196 192 79 23 114 292 165 202 196 200 213 217 232 227 208 188 194 196 202 209 215 217 216 215 219 217 213 212 210 225 236 227 228 231 220 222
207 261 151 119 203 137 227 209 202 132 103 224 353 281 243 196 201 202 207 214 224 228 208 180 185 188 197 212 217 216 214 215 217 215 211 211 212 211 237 250 247 229 210 217
238 164 156 170 202 160 226 160 167 98 78 38 245 37 269 140 212 212 209 211 213 225 207 182 187 195 205 206 211 213 213 213 215 213 213 217 222 227 232 227 230 229 245 248
214 275 187 185 149 177 127 68 40 58 75 322 229 149 278 193 211 215 212 208 208 210 203 193 194 198 198 201 203 209 212 212 213 214 216 221 223 225 227 251 270 281 252 228
345 240 246 155 121 52 88 77 18 358 357 232 322 119 239 238 240 211 204 206 205 200 194 174 168 179 187 198 201 208 208 212 214 215 219 223 225 219 227 247 267 269 248 217
169 303 175 190 185 174 172 153 152 179 211 242 57 239 251 284 293 244 215 207 198 188 180 178 183 182 189 194 194 199 206 211 215 216 219 224 227 226 233 239 225 251 253 231
145 276 275 193 157 138 192 190 169 99 20 86 217 284 307 307 4 251 205 159 188 184 177 183 179 186 190 189 195 202 204 209 216 217 220 223 223 227 230 231 230 245 249 240
203 167 216 329 107 45 152 159 95 6 134 263 276 280 244 292 240 248 223 200 196 186 180 181 181 186 194 190 167 169 188 211 223 220 222 224 226 230 235 243 238 239 239 242
140 115 279 145 182 173 39 62 43 112 121 185 241 262 220 245 193 210 217 207 194 180 187 177 183 180 158 145 143 170 182 183 256 253 241 229 230 232 237 238 239 235 238 248
196 135 200 213 46 81 138 178 150 134 228 185 198 265 243 248 256 209 213 198 196 195 187 171 139 144 141 142 148 158 167 192 241 273 257 244 239 233 236 234 237 242 248 257
182 171 45 350 358 29 201 168 132 109 88 192 165 267 279 280 255 227 209 192 189 186 134 121 146 155 156 154 150 161 173 184 217 237 257 247 240 233 233 233 237 243 247 252
100 121 157 186 205 162 157 139 169 130 123 179 226 263 289 286 237 241 230 198 185 167 132 143 160 161 165 165 170 182 186 197 200 215 241 253 239 237 233 232 235 243 247 247
108 140 176 207 213 201 198 178 175 193 176 160 253 206 242 251 220 218 226 159 156 136 138 154 162 167 164 161 185 184 155 182 208 217 233 240 236 233 233 227 228 233 233 240
341 133 163 3 241 188 227 239 200 225 152 265 253 267 226 270 187 165 193 182 198 152 157 166 166 161 157 163 172 193 165 139 168 206 230 238 231 217 215 212 211 213 222 224
59 117 89 272 30 360 322 231 193 199 181 155 179 231 160 206 227 204 197 194 206 148 166 172 176 166 162 174 163 181 172 180 233 235 254 234 221 202 200 196 199 205 195 195
130 92 84 141 34 295 241 302 255 229 258 212 274 263 239 239 269 260 217 206 203 170 169 182 170 162 168 163 161 150 155 199 230 248 238 219 203 190 194 188 189 188 180 188
152 126 89 127 176 284 308 357 69 76 290 93 271 289 276 13 44 286 197 180 216 116 125 174 177 161 163 177 168 157 178 191 200 224 226 200 192 181 174 173 170 168 165 167
75 66 122 126 154 205 237 252 173 178 287 198 259 269 229 146 148 243 155 143 126 113 132 153 168 155 167 178 181 178 191 193 197 213 204 188 180 177 175 170 168 164 163 152
51 46 156 142 197 283 244 280 129 158 243 315 313 235 172 173 205 280 200 94 111 123 117 127 143 152 165 171 180 192 187 192 197 199 188 180 172 173 171 164 160 160 155 148
150 134 191 92 123 279 81 290 183 236 293 291 288 225 176 178 53 300 212 130 134 123 119 119 120 119 139 168 176 182 186 187 188 182 175 173 171 164 162 159 155 156 153 149
233 183 176 176 219 275 303 335 340 280 271 308 290 246 205 170 175 177 194 175 111 108 117 114 118 130 133 135 183 175 171 175 174 170 168 174 166 161 160 159 156 155 159 157
202 137 156 28 1 280 326 326 295 298 284 299 288 251 160 136 132 154 132 30 58 72 56 30 194 174 83 15 232 188 164 162 156 153 164 162 154 149 149 153 159 166 163 160
196 134 183 258 8 340 348 310 290 310 309 338 324 294 126 123 129 150 128 103 98 96 99 114 94 97 116 157 175 166 149 146 139 144 143 148 150 151 140 132 131 143 158 176
186 178 161 164 198 182 268 280 312 319 322 323 341 315 286 149 145 108 128 102 83 107 126 119 132 134 140 140 151 152 155 150 142 139 139 153 153 145 137 129 111 108 123 134